Weather History for KFFM - January, 2014

Change the Weather History Date:

Thursday, January 23, 2014

  Actual Average Record
Temperature  
Mean Temperature -8 °F -  
Max Temperature 8 °F 20 °F 40 °F (1981)
Min Temperature -22 °F 0 °F -30 °F (1966)
Degree Days  
Heating Degree Days 73    
Moisture  
Dew Point -18 °F    
Average Humidity 70    
Maximum Humidity 77    
Minimum Humidity 61    
Precipitation  
Precipitation 0.00 in - - ()
Sea Level Pressure  
Sea Level Pressure 30.54 in    
Wind  
Wind Speed 10 mph (SW)    
Max Wind Speed 21 mph    
Max Gust Speed 29 mph    
Averages and records for this station are not official NWS values.
T = Trace of Precipitation, MM = Missing Value Source: NWS Daily Summary

Daily Weather History Graph

Daily Weather History Graph

Search for Another Location

Airport or City:

Trip Planner

Search our weather history database for the weather conditions in past years. The results will help you decide how hot, cold, wet, or windy it might be!

Date:

Astronomy

Jan. 23, 2014 Rise Set
Actual Time 7:57 AM CST 5:16 PM CST
Civil Twilight 7:24 AM CST 5:49 PM CST
Nautical Twilight 6:47 AM CST 6:25 PM CST
Astronomical Twilight 6:12 AM CST 7:01 PM CST
Moon 12:13 AM CST (1/23) 11:06 AM CST (1/23)
Length of Visible Light 10h 24m
Length of Day
9h 18m
Waning Gibbous, 55% of the Moon is Illuminated
Jan 23
Waning Gibbous
Jan 23
Last Quarter
Jan 30
New
Feb 6
First Quarter
Feb 14
Full

Hourly Weather History & Observations

Time (CST) Temp. Windchill Dew Point Humidity Pressure Visibility Wind Dir Wind Speed Gust Speed Precip Events Conditions
12:13 AM -14.8 °F -38.3 °F -22.0 °F 70% 30.64 in - NNW 15.0 mph 19.6 mph N/A   Overcast
12:33 AM -14.8 °F -36.6 °F -22.0 °F 70% 30.65 in - NNW 12.7 mph - N/A   Overcast
12:53 AM -14.8 °F -36.6 °F -22.0 °F 70% 30.65 in - NNW 12.7 mph - N/A   Overcast
1:13 AM -16.6 °F -40.6 °F -23.8 °F 70% 30.65 in - NNW 15.0 mph - N/A   Scattered Clouds
1:33 AM -16.6 °F -37.9 °F -23.8 °F 70% 30.66 in - NNW 11.5 mph - N/A   Clear
1:53 AM -16.6 °F -37.9 °F -23.8 °F 70% 30.66 in - NNW 11.5 mph 19.6 mph N/A   Clear
2:13 AM -16.6 °F -37.9 °F -23.8 °F 70% 30.67 in - NNW 11.5 mph - N/A   Clear
2:33 AM -16.6 °F -34.4 °F -23.8 °F 70% 30.68 in - NNW 8.1 mph - N/A   Clear
2:53 AM -16.6 °F -37.9 °F -23.8 °F 70% 30.69 in - NNW 11.5 mph - N/A   Clear
3:13 AM -16.6 °F -36.8 °F -23.8 °F 70% 30.69 in - NNW 10.4 mph - N/A   Clear
3:33 AM -18.4 °F -37.9 °F -25.6 °F 70% 30.70 in - NNW 9.2 mph - N/A   Clear
3:53 AM -18.4 °F -37.9 °F -23.8 °F 76% 30.70 in - NNW 9.2 mph - N/A   Clear
4:13 AM -18.4 °F -36.6 °F -25.6 °F 70% 30.71 in - NNW 8.1 mph - N/A   Clear
4:33 AM -18.4 °F -37.9 °F -23.8 °F 76% 30.71 in - NNW 9.2 mph - N/A   Scattered Clouds
4:53 AM -18.4 °F -39.1 °F -23.8 °F 76% 30.71 in - NNW 10.4 mph - N/A   Clear
5:13 AM -18.4 °F -35.1 °F -25.6 °F 70% 30.72 in - North 6.9 mph - N/A   Clear
5:33 AM -18.4 °F -37.9 °F -25.6 °F 70% 30.72 in - NNW 9.2 mph - N/A   Clear
5:54 AM -18.4 °F -31.4 °F -25.6 °F 70% 30.73 in - NW 4.6 mph - N/A   Clear
6:13 AM -20.2 °F -33.5 °F -27.4 °F 69% 30.73 in - NNW 4.6 mph - N/A   Clear
6:33 AM -20.2 °F -33.5 °F -27.4 °F 69% 30.73 in - NW 4.6 mph - N/A   Clear
6:54 AM -22.0 °F -35.6 °F -29.2 °F 69% 30.74 in - NW 4.6 mph - N/A   Clear
7:13 AM -20.2 °F -35.5 °F -27.4 °F 69% 30.74 in - NW 5.8 mph - N/A   Clear
7:33 AM -20.2 °F - -27.4 °F 69% 30.73 in - Calm Calm - N/A   Clear
7:54 AM -20.2 °F -30.9 °F -27.4 °F 69% 30.73 in - NW 3.5 mph - N/A   Clear
8:13 AM -20.2 °F -30.9 °F -27.4 °F 69% 30.74 in - NNW 3.5 mph - N/A   Clear
8:33 AM -20.2 °F -30.9 °F -27.4 °F 69% 30.74 in - WNW 3.5 mph - N/A   Clear
8:54 AM -20.2 °F - -27.4 °F 69% 30.74 in - Calm Calm - N/A   Clear
9:13 AM -20.2 °F - -27.4 °F 69% 30.74 in - Calm Calm - N/A   Clear
9:33 AM -18.4 °F - -25.6 °F 70% 30.74 in - Calm Calm - N/A   Clear
9:53 AM -18.4 °F - -25.6 °F 70% 30.74 in - Calm Calm - N/A   Clear
10:13 AM -18.4 °F - -25.6 °F 70% 30.73 in - Calm Calm - N/A   Clear
10:34 AM -16.6 °F - -23.8 °F 70% 30.72 in - Calm Calm - N/A   Clear
10:53 AM -16.6 °F - -23.8 °F 70% 30.72 in - Calm Calm - N/A   Clear
11:13 AM -16.6 °F -26.8 °F -22.0 °F 76% 30.73 in - SW 3.5 mph - N/A   Clear
11:34 AM -14.8 °F -27.2 °F -20.2 °F 77% 30.72 in - SW 4.6 mph - N/A   Clear
11:53 AM -14.8 °F -27.2 °F -20.2 °F 77% 30.71 in - SSW 4.6 mph - N/A   Clear
12:13 PM -13.0 °F -27.0 °F -20.2 °F 70% 30.69 in - SSW 5.8 mph - N/A   Clear
12:34 PM -11.2 °F -24.8 °F -18.4 °F 70% 30.68 in - SSW 5.8 mph - N/A   Clear
12:53 PM -11.2 °F -24.8 °F -18.4 °F 70% 30.66 in - SSW 5.8 mph - N/A   Clear
1:13 PM -9.4 °F -24.3 °F -16.6 °F 71% 30.65 in - SSW 6.9 mph - N/A   Clear
1:34 PM -9.4 °F -24.3 °F -16.6 °F 71% 30.64 in - SSW 6.9 mph - N/A   Clear
1:53 PM -7.6 °F -23.4 °F -16.6 °F 65% 30.63 in - SSW 8.1 mph - N/A   Clear
2:13 PM -7.6 °F -23.4 °F -14.8 °F 71% 30.61 in - SSW 8.1 mph - N/A   Clear
2:34 PM -5.8 °F -22.4 °F -14.8 °F 65% 30.59 in - South 9.2 mph - N/A   Clear
2:53 PM -5.8 °F -22.4 °F -14.8 °F 65% 30.58 in - South 9.2 mph - N/A   Clear
3:14 PM -5.8 °F -23.4 °F -13.0 °F 71% 30.57 in - South 10.4 mph - N/A   Clear
3:33 PM -5.8 °F -23.4 °F -13.0 °F 71% 30.55 in - South 10.4 mph - N/A   Clear
3:53 PM -4.0 °F -22.1 °F -11.2 °F 71% 30.53 in - South 11.5 mph - N/A   Clear
4:14 PM -4.0 °F -21.2 °F -11.2 °F 71% 30.51 in - South 10.4 mph - N/A   Clear
4:33 PM -4.0 °F -21.2 °F -11.2 °F 71% 30.51 in - South 10.4 mph - N/A   Clear
4:53 PM -4.0 °F -22.1 °F -11.2 °F 71% 30.48 in - SSE 11.5 mph - N/A   Clear
5:14 PM -4.0 °F -22.1 °F -11.2 °F 71% 30.46 in - South 11.5 mph - N/A   Clear
5:33 PM -5.8 °F -24.4 °F -11.2 °F 77% 30.44 in - South 11.5 mph - N/A   Clear
5:53 PM -5.8 °F -26.0 °F -11.2 °F 77% 30.42 in - South 13.8 mph - N/A   Clear
6:14 PM -4.0 °F -24.5 °F -11.2 °F 71% 30.39 in - South 15.0 mph - N/A   Clear
6:33 PM -2.2 °F -21.5 °F -11.2 °F 66% 30.37 in - South 13.8 mph - N/A   Clear
6:53 PM -2.2 °F -22.9 °F -11.2 °F 66% 30.34 in - South 16.1 mph - N/A   Clear
7:14 PM -2.2 °F -23.5 °F -9.4 °F 71% 30.31 in - South 17.3 mph - N/A   Clear
7:33 PM -2.2 °F -23.5 °F -9.4 °F 71% 30.29 in - South 17.3 mph - N/A   Clear
7:53 PM -0.4 °F -21.7 °F -9.4 °F 66% 30.27 in - South 18.4 mph - N/A   Clear
8:13 PM -0.4 °F -20.5 °F -7.6 °F 72% 30.25 in - South 16.1 mph - N/A   Clear
8:33 PM 1.4 °F -19.9 °F -7.6 °F 66% 30.22 in - South 19.6 mph 27.6 mph N/A   Clear
8:53 PM 1.4 °F -19.9 °F -5.8 °F 72% 30.18 in - South 19.6 mph 25.3 mph N/A   Clear
9:13 PM 3.2 °F -18.1 °F -5.8 °F 66% 30.16 in - South 20.7 mph 28.8 mph N/A   Clear
9:33 PM 3.2 °F -17.6 °F -5.8 °F 66% 30.14 in - South 19.6 mph 24.2 mph N/A   Clear
9:53 PM 5.0 °F -14.2 °F -5.8 °F 61% 30.12 in - South 17.3 mph 23.0 mph N/A   Clear
10:13 PM 5.0 °F -14.2 °F -4.0 °F 66% 30.09 in - South 17.3 mph - N/A   Scattered Clouds
10:33 PM 6.8 °F -12.4 °F -4.0 °F 61% 30.07 in - South 18.4 mph 23.0 mph N/A   Clear
10:53 PM 6.8 °F -12.4 °F -2.2 °F 67% 30.04 in - South 18.4 mph - N/A   Scattered Clouds
11:13 PM 6.8 °F -11.8 °F -2.2 °F 67% 30.00 in - South 17.3 mph - N/A   Mostly Cloudy
11:33 PM 6.8 °F -12.4 °F -2.2 °F 67% 29.98 in - South 18.4 mph - N/A   Scattered Clouds
11:53 PM 8.6 °F -9.5 °F -0.4 °F 67% 29.95 in - South 17.3 mph - N/A   Scattered Clouds